Track STARLINK-1735 now! 10-day predictions STARLINK-1735 is classified as:
1 46565U 20070AK 21016.91667824 -.00028399 00000-0 -18938-2 0 9992 2 46565 53.0301 306.3658 0001469 71.5750 51.8673 15.06427035 1752